KLNP

Details ICAO KLNP
Name LONESOME PINE
Region United States
Timezone America/New_York (UTC-4.0)
Plans Departing 2
Arriving 1
Stats Elevation 2,684 ft / 818 m (AMSL)
Location 36.987518° -82.529997°
Runways 1
Magnetic Variation 6.941° W
Sunrise 2018-05-25 10:16:42 UTC / 2018-05-25 06:16:42 Local
Sunset 2018-05-26 00:40:20 UTC / 2018-05-25 20:40:20 Local
Advertisement - Login to hide

Runways

ID Width Length Bearing (true) Bearing (mag) Surface Threshold Offset Overrun Length
06 100 ft / 30 m 5,276 ft / 1,608 m 56.06° 63.00° Asphalt 0 ft / 0 m 0 ft / 0 m
24 100 ft / 30 m 5,276 ft / 1,608 m 236.07° 243.01° Asphalt 0 ft / 0 m 0 ft / 0 m

Approach Navaids

Runway Type Ident Frequency Range Bearing (true) Bearing (mag) Slope Elevation
24 Localiser IOWN 110.70 MHz 18 nm / 33 km 236.06° 243.00° - 2,684 ft / 818 m (AMSL)
24 DME IOWN 110.70 MHz 18 nm / 33 km - - - 2,681 ft / 817 m (AMSL)

Map

Weather


0- 5 10 15 20 25 30 35+ Temperature / ° C

Clouds and Precipitation
Forecast for 2018-05-25 06:00 UTC. Updated 25 minutes ago

Ground ~20,000 ft ~40,000 ft Winds

METAR

KLNP 250535Z AUTO 00000KT 10SM CLR 19/16 A3018 RMK AO2

TAF

Not found

Frequencies

Recorded 118.60 MHz AWOS 3
Unicom 123.00 MHz CTAF/UNICOM
Warning: Do not use this data for real-world aviation or navigation. No guarantee of current accuracy is given.